Regional Weather Roundup
Issued by NWS

Home | Current Version | Previous Version | Graphics & Text | Print | Product List | Glossary On
Versions: 1 2 3 4 5 6 7 8 9 10 11 12 13 14 15 16 17 18 19 20 21 22 23 24 25 26 27 28 29 30 31 32 33 34 35 36 37 38 39 40 41 42 43 44 45 46 47 48 49 50
000
ASUS43 KDTX 252110
RWRMI
MICHIGAN HOURLY REGIONAL WEATHER ROUNDUP
NATIONAL WEATHER SERVICE DETROIT/PONTIAC MI
400 PM EST SAT FEB 25 2017

NOTE: "FAIR" INDICATES FEW OR NO CLOUDS BELOW 12,000 FEET WITH NO
SIGNIFICANT WEATHER AND/OR OBSTRUCTION TO VISIBILITY.

MIZ047>049-052>055-059>063-066>070-074>076-081>083-252200-
SOUTHEAST LOWER MICHIGAN

CITY           SKY/WX    TMP DP  RH WIND       PRES   REMARKS
ADRIAN         CLOUDY    28  18  66 W15G32    29.81R WCI  16
ALMA           CLOUDY    27  17  66 W18       29.74R WCI  13
ANN ARBOR      FLURRIES  29  20  69 SW23G29   29.75R WCI  15
BAD AXE        CLOUDY    29  19  66 W18G26    29.65R WCI  17
CARO           CLOUDY    29  20  67 W18G26    29.68R WCI  17
DETROIT CITY   CLOUDY    31  19  61 W15G28    29.73R WCI  20
DETROIT        FLURRIES  30  20  66 W21G31    29.76R WCI  17
FLINT          FLURRIES  28  18  66 W16G31    29.72R WCI  16
GROSSE ILE     CLOUDY    31  20  65 W17G29    29.75R WCI  19
HILLSDALE      FLURRIES  27  19  74 W14G24    29.78R WCI  15
HOWELL         LGT SNOW  28  19  71 W24G30    29.74R WCI  13

CITY           SKY/WX    TMP DP  RH WIND       PRES   REMARKS
JACKSON        LGT SNOW  26  18  71 W17G32    29.77R WCI  13
LAMBERTVILLE   CLOUDY    31  19  62 W18G26    29.81R WCI  19
LANSING        LGT SNOW  25  15  66 W21G37    29.78R WCI  11
LAPEER         CLOUDY    29  19  64 W16G29    29.69R WCI  18
MASON          CLOUDY    27  19  71 W21G26    29.77R WCI  14
MONROE         CLOUDY    31  21  68 W23G30    29.77R WCI  17
MT. CLEMENS    FLURRIES  32  20  60 W18G28    29.69R WCI  20
PONTIAC        FLURRIES  28  17  63 W23G32    29.70R WCI  14
PORT HOPE        N/A     30  19  63 W14G29    29.62R WCI  19
PORT HURON     CLOUDY    30  19  64 W13G22    29.69R WCI  20
TRI CITIES     CLOUDY    28  15  58 W30G38    29.70R WCI  12
MIDLAND        CLOUDY    29  14  53 W17G31    29.70R WCI  16
TROY           CLOUDY    32  17  54 W15       29.74R WCI  21
SAGINAW HB     CLOUDY    30  19  64 W20G32    29.70R HAZE    WCI  18
$$
MIZ043>046-050>051-056>058-064>065-071>073-077>080-252200-
SOUTHWEST LOWER MICHIGAN

CITY           SKY/WX    TMP DP  RH WIND       PRES   REMARKS
BATTLE CREEK   LGT SNOW  25  19  78 W16       29.81R WCI  12
BENTON HARBOR  LGT SNOW  25  17  72 W17G28    29.88R WCI  12
BIG RAPIDS     CLOUDY    24  17  74 W14G21    29.73R WCI  12
COLDWATER      LGT SNOW  26  19  75 W22G29    29.82R WCI  11
FREMONT        LGT SNOW  23  19  83 W15       29.79R WCI  10
HOLLAND        LGT SNOW  23  15  71 W17G26    29.85R WCI   9
GRAND RAPIDS   LGT SNOW  24  15  68 W23G30    29.80R WCI   9
IONIA          LGT SNOW  24  18  78 W18G24    29.77R WCI   9
KALAMAZOO      LGT SNOW  25  16  68 W14       29.83R WCI  13
LUDINGTON      LGT SNOW  25  17  73 W10G18    29.78R WCI  14
MARSHALL       CLOUDY    26  16  66 W21G32    29.79R WCI  12
MOUNT PLEASANT FLURRIES  26  17  66 W14G22    29.72R WCI  15
MUSKEGON       LGT SNOW  24  15  68 W13       29.83R WCI  12
SOUTH HAVEN    LGT SNOW  24  18  76 W15G23    29.87R WCI  12
$$
MIZ016>042-252200-
NORTHERN LOWER MICHIGAN

CITY           SKY/WX    TMP DP  RH WIND       PRES   REMARKS
ALPENA         CLOUDY    28  19  69 W14G25    29.59R WCI  17
BEAVER ISLAND  LGT SNOW  23  18  80 W16G24    29.66R WCI  10
BELLAIRE       LGT SNOW  25  20  82 W12G18    29.69R WCI  14
CADILLAC       LGT SNOW  23  17  79 W8G17     29.67R WCI  13
CHARLEVOIX     LGT SNOW  24  22  89 W23G32    29.69R VSB 3/4 WCI   9
FRANKFORT      CLOUDY    26  21  80 W15G21    29.73R WCI  14
GAYLORD        LGT SNOW  24  17  74 W17G24    29.59R VSB 1   WCI  11
GRAYLING       CLOUDY    25  17  72 W18G26    29.64R HAZE    WCI  12
HARBOR SPRINGS LGT SNOW  25  18  76 W15G22    29.63R WCI  13
HOUGHTON LAKE  LGT SNOW  22  16  78 NW18G29   29.66R WCI   7
MANISTEE       LGT SNOW  24  18  77 W16G28    29.75R WCI  11
OSCODA         FLURRIES  30  16  56 W18G28    29.62R WCI  18
PELLSTON       LGT SNOW  24  18  77 W22G28    29.62R VSB 3/4 WCI   9
TRAVERSE CITY  LGT SNOW  26  19  74 W18       29.70R WCI  13
$$
MIZ007>008-015-252200-
EASTERN UPPER MICHIGAN

CITY           SKY/WX    TMP DP  RH WIND       PRES   REMARKS
KINROSS        LGT SNOW  19  16  86 NW20G29   29.55R WCI   4
MACKINAC ISLAN LGT SNOW  23  17  77 W18G28    29.59R WCI   9
NEWBERRY       LGT SNOW  21  17  85 NW16G24   29.59R WCI   7
S. S. MARIE    LGT SNOW  22  14  71 NW22G29   29.54R WCI   6
MUNISING         N/A     22  12  65 NW16G33   29.68R WCI   8
$$
MIZ004>006-011>014-085-252200-
CENTRAL UPPER MICHIGAN

CITY           SKY/WX    TMP DP  RH WIND       PRES   REMARKS
MANISTIQUE     LGT SNOW  21  17  83 NW18G25   29.66R WCI   7
ESCANABA       PTSUNNY   27  12  53 W20G28    29.70R WCI  13
SAWYER-GWINN   MOSUNNY   19  10  68 NW12G21   29.66R WCI   7
$$
MIZ001>003-009>011-084-252200-
WESTERN UPPER MICHIGAN

CITY           SKY/WX    TMP DP  RH WIND       PRES   REMARKS
IRON MOUNTAIN  MIX PCPN  22   9  57 NW16G30   29.70R WCI   8
HOUGHTON       LGT SNOW  21  13  71 W20G25    29.66S WCI   6
COPPER HARBOR    N/A     23  13  65 N17G30    29.66R WCI   9
IRONWOOD       SUNNY     22   8  55 W16       29.76S WCI   8
$$

ABBREVIATIONS USED IN REMARKS
   TC - TEMPERATURE IN CELSIUS
  WCI - WIND CHILL INDEX
   HX - HEAT INDEX
  VSB - VISIBILITY




USA.gov is the U.S. government's official web portal to all federal, state and local government web resources and services.